Regional Weather Roundup
Issued by NWS Cleveland, OH

Home | Current Version | Previous Version | Graphics & Text | Print | Product List | Glossary On
Versions: 1 2 3 4 5 6 7 8 9 10 11 12 13 14 15 16 17 18 19 20 21 22 23 24 25 26 27 28 29 30 31 32 33 34 35 36 37 38 39 40 41 42 43 44 45 46 47 48 49 50
000
ASUS41 KCLE 302010
RWRCLE
OHIO REGIONAL WEATHER ROUNDUP
NATIONAL WEATHER SERVICE WILMINGTON, OH
400 PM EDT SUN APR 30 2017

NOTE: "FAIR" INDICATES FEW OR NO CLOUDS BELOW 12,000 FEET WITH NO
SIGNIFICANT WEATHER AND/OR OBSTRUCTIONS TO VISIBILITY.

OHZ001>008-015>018-024>027-034-035-043-044-302100-
   NORTHWEST OHIO

CITY           SKY/WX    TMP DP  RH WIND       PRES   REMARKS
DEFIANCE       CLOUDY    71  63  75 S12       29.83F
FINDLAY        FAIR      77  64  64 S18       29.83F
TOLEDO EXPRESS PTSUNNY   57  53  86 E8        29.84F
TOLEDO EXEC    FAIR      56  52  86 NE8       29.87F
LIMA           FAIR      75  65  70 S17G25    29.84F
$$

OHZ009>014-019>023-028>033-038-089-302100-
   NORTHEAST OHIO

CITY           SKY/WX    TMP DP  RH WIND       PRES   REMARKS
CLE-HOPKINS    CLOUDY    83  59  44 SW23G30   29.89S
CLE-LAKEFRONT  FAIR      83  60  45 SW25G41   29.85S
CUY CO. ARPT   PTSUNNY   84  63  48 W14G23    29.89S
LORAIN-ELYRIA  PTSUNNY   80  60  50 SW17      29.86F
ASHTABULA      PTSUNNY   83  60  45 SW20G30   29.88F
AKRON-CANTON   PTSUNNY   80  63  55 S20G30    29.94R
WOOSTER        FAIR      81  62  52 SW26G36   29.91F
MANSFIELD      PTSUNNY   80  64  58 SW21G31   29.90F
YOUNGSTOWN     TSTM      74  63  68 SW13G24   29.93S
$$

OHZ042-051>053-060>062-070>072-077>081-302100-
  SOUTHWEST OHIO

CITY           SKY/WX    TMP DP  RH WIND       PRES   REMARKS
CINC-COVINGTON CLOUDY    80  67  64 S15       29.84F
CINC-LUNKEN    FAIR      80  68  66 S21G26    29.84F
HAMILTON       PTSUNNY   81  67  62 VRB5      29.84F
DAYTON         CLOUDY    79  64  60 S20G30    29.85F
WRIGHT-PAT AFB FAIR      81  68  64 S18G30    29.85F
DAYTON GENERAL FAIR      80  64  58 S22G29    29.86F
WILMINGTON     FAIR      80  67  64 S22G31    29.87F
$$

OHZ036-037-039>041-045>050-054>059-063>069-073>076-082>088-302100-
  CENTRAL AND SOUTHEAST OHIO

CITY           SKY/WX    TMP DP  RH WIND       PRES   REMARKS
COLUMBUS       CLOUDY    83  65  54 SW16G23   29.89F
OSU AIRPORT    FAIR      82  66  58 SW16G29   29.88F
BOLTON FIELD   SUNNY     82  66  57 SW21G30   29.90F
RICKENBACK AFB FAIR      82  67  59 SW22      29.88F
NEWARK         FAIR      79  68  69 S8        29.90F
MARION         FAIR      80  63  55 SW21G32   29.88F
LANCASTER      FAIR      82  69  64 S8        29.90F
ZANESVILLE     PTSUNNY   78  64  61 W10       29.93S
NEW PHILLY     TSTM      70  66  87 SW8       29.98S
$$



USA.gov is the U.S. government's official web portal to all federal, state and local government web resources and services.